When you browse on this site, cookies collect data to enhance your experience and personalize the content and advertising you see.
Visit our Privacy Policy to learn more. By continuing to use the site, you agree to this use of cookies and data.
EN

Hourly Weather Daru

Today, 3 July, Friday

Time Temperature Precipitation Wind Pressure Humidity
00:00 +27°C° 0.2 mm 8 mps 758 mmHg 85%
01:00 +27°C° 0.2 mm 8 mps 758 mmHg 85%
02:00 +27°C° 0.2 mm 8 mps 758 mmHg 85%
03:00 +27°C° 0.2 mm 8 mps 758 mmHg 85%
04:00 +27°C° 0 mm 8 mps 757 mmHg 85%
05:00 +27°C° 0.1 mm 8 mps 758 mmHg 85%
06:00 +27°C° 0.1 mm 8 mps 758 mmHg 84%
07:00 +27°C° 0.1 mm 8 mps 758 mmHg 84%
08:00 +27°C° 0.1 mm 8 mps 758 mmHg 82%
09:00 +28°C° 0.1 mm 8 mps 759 mmHg 80%
10:00 +28°C° 0 mm 9 mps 759 mmHg 80%
11:00 +28°C° 0.1 mm 9 mps 759 mmHg 79%
12:00 +28°C° 0.1 mm 9 mps 759 mmHg 79%
13:00 +27°C° 0.1 mm 9 mps 758 mmHg 78%
14:00 +28°C° 0.1 mm 9 mps 758 mmHg 77%
15:00 +28°C° 0.1 mm 9 mps 758 mmHg 75%
16:00 +28°C° 0 mm 8 mps 758 mmHg 75%
17:00 +27°C° 0.1 mm 8 mps 758 mmHg 76%
18:00 +27°C° 0.1 mm 8 mps 758 mmHg 77%
19:00 +27°C° 0.1 mm 8 mps 759 mmHg 78%
20:00 +27°C° 0 mm 8 mps 759 mmHg 78%
21:00 +27°C° 0 mm 8 mps 759 mmHg 78%
22:00 +27°C° 0 mm 7 mps 760 mmHg 78%
23:00 +26°C° 0 mm 7 mps 760 mmHg 79%

Tomorrow, 4 July, Saturday

Time Temperature Precipitation Wind Pressure Humidity
00:00 +26°C° 0 mm 7 mps 760 mmHg 79%
01:00 +26°C° 0 mm 7 mps 760 mmHg 80%
02:00 +26°C° 0.1 mm 7 mps 759 mmHg 80%
03:00 +26°C° 0.1 mm 7 mps 759 mmHg 80%
04:00 +26°C° 0.1 mm 7 mps 759 mmHg 81%
05:00 +26°C° 0.1 mm 7 mps 759 mmHg 81%
06:00 +26°C° 0.1 mm 7 mps 759 mmHg 81%
07:00 +26°C° 0.1 mm 6 mps 759 mmHg 81%
08:00 +27°C° 0.1 mm 6 mps 759 mmHg 78%
09:00 +27°C° 0.1 mm 6 mps 760 mmHg 75%
10:00 +28°C° 0.1 mm 6 mps 760 mmHg 73%
11:00 +28°C° 0.1 mm 6 mps 759 mmHg 72%
12:00 +28°C° 0.1 mm 6 mps 759 mmHg 71%
13:00 +28°C° 0.1 mm 6 mps 758 mmHg 71%
14:00 +28°C° 0.1 mm 6 mps 758 mmHg 74%
15:00 +28°C° 0.1 mm 6 mps 758 mmHg 76%
16:00 +27°C° 0.1 mm 6 mps 757 mmHg 79%
17:00 +27°C° 0.1 mm 6 mps 757 mmHg 81%
18:00 +27°C° 0.1 mm 6 mps 758 mmHg 83%
19:00 +26°C° 0.1 mm 6 mps 758 mmHg 85%
20:00 +26°C° 0.3 mm 6 mps 758 mmHg 86%
21:00 +26°C° 0.3 mm 7 mps 759 mmHg 87%
22:00 +26°C° 0.3 mm 7 mps 759 mmHg 88%
23:00 +26°C° 0.3 mm 7 mps 759 mmHg 88%

Day after tomorrow, 5 July, Sunday

Time Temperature Precipitation Wind Pressure Humidity
00:00 +26°C° 0.3 mm 7 mps 758 mmHg 88%
01:00 +26°C° 0.3 mm 7 mps 758 mmHg 88%
02:00 +26°C° 0.2 mm 7 mps 758 mmHg 88%
03:00 +26°C° 0.2 mm 6 mps 757 mmHg 88%
04:00 +26°C° 0.2 mm 6 mps 757 mmHg 88%
05:00 +26°C° 0.5 mm 6 mps 757 mmHg 88%
06:00 +26°C° 0.5 mm 6 mps 758 mmHg 88%
07:00 +26°C° 0.5 mm 6 mps 758 mmHg 88%
08:00 +27°C° 0.1 mm 6 mps 758 mmHg 85%
09:00 +28°C° 0.1 mm 6 mps 759 mmHg 82%
10:00 +28°C° 0.1 mm 6 mps 759 mmHg 78%
11:00 +28°C° 0.5 mm 7 mps 759 mmHg 79%
12:00 +28°C° 0.5 mm 7 mps 758 mmHg 80%
13:00 +28°C° 0.5 mm 8 mps 757 mmHg 81%
14:00 +28°C° 0.4 mm 8 mps 757 mmHg 81%
15:00 +28°C° 0.4 mm 8 mps 757 mmHg 82%
16:00 +27°C° 0.4 mm 8 mps 756 mmHg 83%
17:00 +27°C° 0.2 mm 8 mps 757 mmHg 83%
18:00 +27°C° 0.2 mm 8 mps 757 mmHg 84%
19:00 +26°C° 0.2 mm 8 mps 757 mmHg 85%
20:00 +26°C° 0.1 mm 8 mps 758 mmHg 84%
21:00 +27°C° 0.1 mm 8 mps 758 mmHg 83%
22:00 +27°C° 0.1 mm 8 mps 759 mmHg 83%
23:00 +26°C° 0.2 mm 8 mps 759 mmHg 83%

6 July, Monday

Time Temperature Precipitation Wind Pressure Humidity
00:00 +26°C° 0.2 mm 8 mps 758 mmHg 84%
01:00 +26°C° 0.2 mm 8 mps 758 mmHg 84%
02:00 +26°C° 0 mm 7 mps 758 mmHg 83%
03:00 +26°C° 0 mm 7 mps 757 mmHg 83%
04:00 +26°C° 0 mm 7 mps 757 mmHg 82%
05:00 +26°C° 0 mm 7 mps 757 mmHg 83%
06:00 +26°C° 0 mm 7 mps 758 mmHg 84%
07:00 +27°C° 0 mm 7 mps 758 mmHg 84%
08:00 +27°C° 0.1 mm 7 mps 758 mmHg 82%
09:00 +28°C° 0.1 mm 7 mps 759 mmHg 80%
10:00 +29°C° 0.1 mm 7 mps 759 mmHg 78%
11:00 +29°C° 0.3 mm 7 mps 758 mmHg 79%
12:00 +29°C° 0.3 mm 7 mps 758 mmHg 80%
13:00 +29°C° 0.3 mm 7 mps 757 mmHg 81%
14:00 +28°C° 0.3 mm 7 mps 757 mmHg 82%
15:00 +28°C° 0.3 mm 7 mps 756 mmHg 83%
16:00 +28°C° 0.3 mm 7 mps 756 mmHg 84%
17:00 +28°C° 0.3 mm 7 mps 756 mmHg 86%
18:00 +27°C° 0.3 mm 7 mps 757 mmHg 87%
19:00 +27°C° 0.3 mm 7 mps 757 mmHg 89%
20:00 +27°C° 0.2 mm 7 mps 757 mmHg 89%
21:00 +27°C° 0.2 mm 7 mps 758 mmHg 88%
22:00 +27°C° 0.2 mm 7 mps 758 mmHg 88%
23:00 +27°C° 0.2 mm 7 mps 758 mmHg 88%

7 July, Tuesday

Time Temperature Precipitation Wind Pressure Humidity
00:00 +27°C° 0.2 mm 7 mps 758 mmHg 88%
01:00 +27°C° 0.2 mm 8 mps 757 mmHg 89%
02:00 +27°C° 0.2 mm 8 mps 757 mmHg 89%
03:00 +27°C° 0.2 mm 8 mps 757 mmHg 89%
04:00 +27°C° 0.2 mm 8 mps 757 mmHg 89%
05:00 +27°C° 0.5 mm 8 mps 757 mmHg 89%
06:00 +27°C° 0.5 mm 8 mps 757 mmHg 89%
07:00 +27°C° 0.5 mm 8 mps 757 mmHg 89%
08:00 +27°C° 0.7 mm 8 mps 758 mmHg 88%
09:00 +27°C° 0.7 mm 8 mps 758 mmHg 88%
10:00 +28°C° 0.7 mm 8 mps 758 mmHg 87%
11:00 +28°C° 1.1 mm 8 mps 758 mmHg 87%
12:00 +28°C° 1.1 mm 9 mps 757 mmHg 86%
13:00 +28°C° 1.1 mm 9 mps 757 mmHg 86%
14:00 +28°C° 0.7 mm 9 mps 756 mmHg 86%
15:00 +28°C° 0.7 mm 9 mps 756 mmHg 86%
16:00 +28°C° 0.7 mm 8 mps 755 mmHg 86%
17:00 +28°C° 0.2 mm 8 mps 756 mmHg 87%
18:00 +27°C° 0.2 mm 8 mps 756 mmHg 88%
19:00 +27°C° 0.2 mm 8 mps 756 mmHg 89%
20:00 +27°C° 0.3 mm 8 mps 757 mmHg 89%
21:00 +27°C° 0.3 mm 8 mps 757 mmHg 89%
22:00 +27°C° 0.3 mm 8 mps 757 mmHg 89%
23:00 +27°C° 0.2 mm 8 mps 757 mmHg 89%

8 July, Wednesday

Time Temperature Precipitation Wind Pressure Humidity
00:00 +27°C° 0.2 mm 8 mps 757 mmHg 89%
01:00 +27°C° 0.2 mm 8 mps 757 mmHg 89%
02:00 +27°C° 0.4 mm 8 mps 756 mmHg 88%
03:00 +27°C° 0.4 mm 8 mps 756 mmHg 88%
04:00 +27°C° 0.4 mm 8 mps 756 mmHg 88%
05:00 +27°C° 0.2 mm 7 mps 756 mmHg 88%
06:00 +27°C° 0.2 mm 7 mps 756 mmHg 88%
07:00 +27°C° 0.2 mm 7 mps 757 mmHg 88%
08:00 +28°C° 0.1 mm 7 mps 757 mmHg 87%
09:00 +28°C° 0.1 mm 8 mps 757 mmHg 85%
10:00 +28°C° 0.1 mm 8 mps 757 mmHg 84%
11:00 +28°C° 0.2 mm 8 mps 756 mmHg 83%
12:00 +29°C° 0.2 mm 8 mps 756 mmHg 82%
13:00 +29°C° 0.2 mm 8 mps 755 mmHg 81%
14:00 +29°C° 0.3 mm 8 mps 755 mmHg 81%
15:00 +29°C° 0.3 mm 8 mps 755 mmHg 82%
16:00 +29°C° 0.3 mm 8 mps 754 mmHg 83%
17:00 +28°C° 0.2 mm 8 mps 755 mmHg 84%
18:00 +28°C° 0.2 mm 8 mps 755 mmHg 86%
19:00 +27°C° 0.2 mm 8 mps 755 mmHg 87%
20:00 +27°C° 0.2 mm 8 mps 756 mmHg 88%
21:00 +27°C° 0.2 mm 8 mps 756 mmHg 88%
22:00 +27°C° 0.2 mm 8 mps 756 mmHg 88%
23:00 +27°C° 0.3 mm 8 mps 756 mmHg 88%
Show more